Regional Weather Roundup
Issued by NWS

Home | Current Version | Previous Version | Graphics & Text | Print | Product List | Glossary On
Versions: 1 2 3 4 5 6 7 8 9 10 11 12 13 14 15 16 17 18 19 20 21 22 23 24 25 26 27 28 29 30 31 32 33 34 35 36 37 38 39 40 41 42 43 44 45 46 47 48 49 50
000
ASUS43 KIND 260259
RWRIN

WEATHER ROUNDUP FOR INDIANA
NATIONAL WEATHER SERVICE INDIANAPOLIS IN
1000 PM EST SUN JAN 25 2015

NOTE: "FAIR" INDICATES FEW OR NO CLOUDS BELOW 12,000 FEET WITH NO
SIGNIFICANT WEATHER AND/OR OBSTRUCTIONS TO VISIBILITY.

* - STATION DOES NOT REPORT WEATHER SUCH AS PRECIPITATION OR FOG.

+ - STATION NOT QUALITY CONTROLLED BY THE NATIONAL WEATHER SERVICE.
    USE DATA WITH CAUTION...ESPECIALLY DEWPOINT AND RELATIVE
    HUMIDITY OBSERVATIONS.

INZ001>003-010>013-019-020-260400-
NORTHWEST INDIANA

CITY           SKY/WX    TMP DP  RH WIND       PRES   REMARKS
MONTICELLO +   CLOUDY    25  22  86 NE14G20   29.89S WCI  13
VALPARAISO     NOT AVBL

$$

LMZ046-743>745-260400-
SOUTHERN LAKE MICHIGAN

STATION/POSITION TIME  TEMP WIND        PRES
                       AIR  DIR/SP/G
                 (UTC) (F)  (DEG/KT/KT) (MB)
MICHIGAN CITY    0200   25   30/ 18/ 20   N/A

$$

INZ004-005-014>016-021>024-260400-
NORTH CENTRAL INDIANA

CITY           SKY/WX    TMP DP  RH WIND       PRES   REMARKS
GOSHEN         CLOUDY    24  17  74 NE12      29.91S WCI  13
SOUTH BEND     CLOUDY    24  14  65 NE8       29.94R WCI  15
WARSAW +       CLOUDY    23  19  86 NE9G20    29.91R WCI  13

$$

INZ006>009-017-018-025>027-260400-
NORTHEAST INDIANA

CITY           SKY/WX    TMP DP  RH WIND       PRES   REMARKS
ANGOLA *+      CLOUDY    21  10  63 E8        29.90R WCI  12
FORT WAYNE     LGT SNOW  20  16  84 NE14      29.90R FOG     WCI   7

$$

INZ028-029-035-036-043>045-051>053-260400-
WEST CENTRAL INDIANA

CITY           SKY/WX    TMP DP  RH WIND       PRES   REMARKS
GREENCASTLE +  CLOUDY    27  19  74 NE17G25   29.82R WCI  14
LAFAYETTE      CLOUDY    25  21  85 NE15G22   29.89S WCI  13
TERRE HAUTE    CLOUDY    28  24  85 NE17G28   29.83R WCI  16

$$

INZ030>032-037>040-046>048-054>057-064-065-260400-
CENTRAL INDIANA

CITY           SKY/WX    TMP DP  RH WIND       PRES   REMARKS
CP ATTERBURY + LGT SNOW  28  25  86 N9        29.77R WCI  20
INDIANAPOLIS   FLURRIES  22  20  92 N18       29.80R WCI   7
-EAGLE CREEK   CLOUDY    23  18  81 NE13G23   29.82R WCI  11
KOKOMO *+      CLOUDY    21  16  79 NE18G25   29.88R WCI   6
MT COMFORT *+  CLOUDY    23  18  80 NE21G26   29.80S WCI   8
SHELBYVILLE    LGT SNOW  26  21  81 NE18      29.76S WCI  13

$$

INZ033-034-041-042-049-050-058-059-260400-
EAST CENTRAL INDIANA

CITY           SKY/WX    TMP DP  RH WIND       PRES   REMARKS
MUNCIE         LGT SNOW  20  17  88 NE17      29.82R FOG     WCI   5

$$

INZ060-061-067>069-081>083-085>088-260400-
SOUTHWEST INDIANA

CITY           SKY/WX    TMP DP  RH WIND       PRES   REMARKS
EVANSVILLE     CLOUDY    41  38  89 NW15G24   29.74R
HUNTINGBURG *+ CLOUDY    39  36  87 N9        29.71R

$$

INZ062-063-066-070>080-084-089>092-260400-
SOUTH CENTRAL AND SOUTHEAST INDIANA

CITY           SKY/WX    TMP DP  RH WIND       PRES   REMARKS
BLOOMINGTON    CLOUDY    29  27  92 N16       29.76R FOG     WCI  17
SEYMOUR +      CLOUDY    32  32 100 N21G29    29.73R WCI  20

$$




USA.gov is the U.S. government's official web portal to all federal, state and local government web resources and services.